Weather observations for the past three days for
Shageluk Airport
Metric (Imperial)
Date Time (akdt) Wind (kph) Vis. (km) Weather Sky Cond. Temperature (ºC) Relative Humidity Wind Chill (°C) Heat Index (°C) Pressure Precipitation (cm)
Air Dwpt 6 hour altimeter (cm) sea level (mb) 1 hr 3 hr 6 hr
Max. Min.
16 03:02 Calm 16.09 Fair CLR 13.9 11.7 87% 76.63 1021.5
16 02:02 Calm 16.09 Fair CLR 14.4 11.1 81% 76.61 1021.4
16 01:02 NE 6 16.09 Fair CLR 15.6 10.6 72% 76.61 1021.2
16 00:02 NE 6 16.09 Fair CLR 18.3 7.8 51% 76.58 1021.0
15 23:02 N 6 16.09 Fair CLR 20 8.9 49% 76.56 1020.6
15 22:02 Calm 16.09 Fair CLR 21.1 9.4 22.8 20.6 47% 76.56 1020.5
15 21:02 N 11 16.09 Fair CLR 22.2 8.3 41% 76.56 1020.5
15 20:02 NE 6 16.09 Fair CLR 22.2 8.9 43% 76.56 1020.6
15 19:02 N 11 16.09 Fair CLR 22.2 7.8 40% 76.58 1020.9
15 18:02 N 9 16.09 Fair CLR 22.2 6.1 35% 76.61 1021.2
15 17:02 Vrbl 6 16.09 Fair CLR 21.7 7.8 41% 76.63 1021.5
15 16:02 Vrbl 6 16.09 Fair CLR 21.1 7.8 21.1 12.8 42% 76.68 1022.2
15 15:02 Vrbl 6 16.09 Fair CLR 20 6.7 42% 76.71 1022.5
15 14:02 NE 11 16.09 Fair CLR 18.9 6.1 43% 76.71 1022.7
15 13:02 N 7 16.09 Fair CLR 17.2 5.6 47% 76.76 1023.2
15 12:02 N 9 16.09 Fair CLR 15.6 4.4 48% 76.78 1023.6
15 11:02 Vrbl 7 16.09 Fair CLR 14.4 5 53% 76.81 1023.9
15 10:02 N 6 16.09 Fair CLR 12.8 6.7 12.8 7.2 67% 76.84 1024.2
15 09:02 Vrbl 6 16.09 Fair CLR 11.7 6.1 69% 76.84 1024.3
15 08:02 Calm 16.09 Fair CLR 9.4 5 74% 76.84 1024.3
15 07:02 N 6 16.09 Fair CLR 8.9 5.6 80% 76.84 1024.4
15 06:02 Calm 16.09 Fair CLR 7.8 6.1 89% 76.84 1024.4
15 05:02 Calm 16.09 Fair CLR 8.3 5 80% 76.84 1024.4
15 04:02 NE 6 16.09 Fair CLR 8.3 5.6 18.3 8.3 83% 76.84 1024.4
15 03:02 N 9 16.09 Fair CLR 9.4 6.1 80% 8 76.81 1024.1
15 02:02 N 9 14.48 Fair CLR 10.6 6.1 74% 76.81 1024.0
15 01:02 N 9 16.09 Fair CLR 11.7 6.1 69% 76.81 1024.0
15 00:02 N 13 16.09 Fair CLR 13.9 6.7 62% 76.78 1023.6
14 23:02 N 13 16.09 Fair CLR 16.1 7.2 56% 76.76 1023.2
14 22:02 NE 11 16.09 Fair CLR 18.3 8.3 20.6 18.3 52% 76.71 1022.6
14 21:02 N 9 16.09 Fair CLR 19.4 7.2 45% 76.68 1022.4
14 20:02 NW 11 16.09 Fair CLR 20 6.1 40% 76.71 1022.5
14 19:02 N 11 16.09 Fair CLR 20 6.1 40% 76.71 1022.8
14 18:02 Vrbl 6 16.09 Fair CLR 19.4 6.7 44% 76.73 1022.9
14 17:02 N 7 16.09 Fair CLR 19.4 6.7 44% 76.76 1023.4
14 16:02 NW 15 16.09 Fair CLR 18.9 7.2 18.9 13.9 47% 76.81 1023.9
14 15:02 NW 7 16.09 Fair CLR 17.8 7.2 50% 76.81 1024.1
14 14:02 Vrbl 7 16.09 Fair CLR 17.2 7.2 52% 76.84 1024.4
14 13:02 W 9 16.09 Fair CLR 16.7 7.2 54% 76.86 1024.7
14 12:02 Vrbl 7 16.09 Fair CLR 15.6 7.2 58% 76.89 1025.1
14 11:02 Vrbl 6 16.09 Fair CLR 15 7.2 60% 76.91 1025.3
14 10:02 Vrbl 6 16.09 Fair CLR 14.4 7.2 14.4 7.8 62% 76.94 1025.6
14 09:02 W 6 16.09 Fair CLR 12.2 6.7 69% 76.94 1025.5
14 08:02 Calm 16.09 Fair CLR 11.1 6.7 75% 76.91 1025.4
14 07:02 Calm 16.09 Fair CLR 10 7.2 83% 76.91 1025.3
14 06:02 Calm 16.09 Fair CLR 8.3 7.8 97% 76.91 1025.2
14 05:02 N 6 16.09 Fair CLR 7.8 5.6 86% 76.89 1025.0
14 04:02 N 9 16.09 Fair CLR 8.9 6.1 16.7 8.9 83% 8 76.86 1024.6
14 03:02 NW 6 16.09 Fair CLR 10 7.2 83% 76.86 1024.5
14 02:02 Calm 16.09 A Few Clouds FEW048 11.1 6.7 75% 76.84 1024.2
14 01:02 W 7 16.09 A Few Clouds FEW050 12.2 6.7 69% 76.78 1023.8
14 00:02 W 6 16.09 Fair CLR 13.3 6.7 65% 76.76 1023.5
13 23:02 W 6 16.09 Fair CLR 16.1 7.2 56% 76.73 1023.0
13 22:02 W 11 16.09 Fair CLR 16.7 6.7 18.9 16.7 52% 76.71 1022.7
13 21:02 SW 13 16.09 Fair CLR 17.2 7.8 54% 76.71 1022.6
13 20:02 SW 13 16.09 A Few Clouds FEW050 18.3 7.2 49% 76.68 1022.3
13 19:02 SW 9 16.09 A Few Clouds FEW048 18.3 6.7 47% 76.71 1022.6
13 18:02 SW 13 16.09 Partly Cloudy SCT044 17.8 6.7 48% 76.73 1022.9
13 17:02 S 7 16.09 Fair CLR 17.2 7.2 52% 76.73 1023.1
13 16:02 Vrbl 11 16.09 Partly Cloudy SCT040 17.2 6.7 17.2 11.7 50% 76.76 1023.4
13 15:02 Vrbl 6 16.09 A Few Clouds FEW035 16.1 6.7 54% 76.78 1023.7
13 14:02 Vrbl 7 16.09 Partly Cloudy SCT033 15 6.1 56% 76.81 1023.9
13 13:02 W 9 16.09 Mostly Cloudy BKN031 13.3 5.6 60% 76.84 1024.2
13 12:02 SW 13 16.09 Mostly Cloudy BKN029 12.8 5.6 62% 76.84 1024.4
13 11:02 SW 11 16.09 Overcast OVC027 12.2 5.6 64% 76.84 1024.3
13 10:02 W 9 16.09 Overcast OVC032 11.7 6.1 11.7 8.3 69% 76.81 1024.1
13 09:02 W 11 16.09 Overcast OVC034 11.1 7.2 77% 76.81 1023.9
13 08:02 SW 9 16.09 Fair CLR 10 7.2 83% 9 76.78 1023.6
13 07:02 SW 9 16.09 A Few Clouds FEW110 8.9 7.8 93% 8 76.76 1023.2
13 06:02 S 9 16.09 Fair CLR 8.3 7.8 97% 7 76.71 1022.7
13 05:02 SW 13 16.09 Fair CLR 8.9 7.8 93% 7 76.68 1022.3
13 04:02 SW 15 16.09 Partly Cloudy SCT120 9.4 7.8 13.9 9.4 90% 7 76.66 1021.9
Date Time (akdt) Wind (kph) Vis. (km) Weather Sky Cond. Air Dwpt Max. Min. Relative Humidity Wind Chill (°C) Heat Index (°C) altimeter (cm) sea level (mb) 1 hr 3 hr 6 hr
6 hour
Temperature (ºC) Pressure Precipitation (cm)